Location: Unspecified
(0.0000°N, 0.0000°E)
Time: 10:39:12
(UTC+02:00)

Cosmos 1833 Rocket - Visible Passes

Search period start: 01 October 2016 00:00
Search period end: 11 October 2016 00:00
Orbit: 832 x 841 km, 71.0° (Epoch: 30 September)

Date Brightness Start Highest point End Pass type
(mag) Time Alt. Az. Time Alt. Az. Time Alt. Az.
07 Oct 5.3 22:28:20 10° SSW 22:28:30 11° SSW 22:28:30 11° SSW visible
08 Oct 4.7 22:11:37 10° SSW 22:13:21 21° SSW 22:13:21 21° SSW visible
09 Oct 3.7 21:54:55 10° SSW 21:58:21 39° SSW 21:58:21 39° SSW visible
10 Oct 2.6 21:38:15 10° SSW 21:43:31 79° SW 21:43:31 79° SW visible
